Location: Newark
(46.7000°N, 60.6000°W)
Time: 09:35:20
(UTC+00:00)

Transit 2A Rocket - Pass Details

Date: 02 November 2020
Orbit: 588 x 915 km, 66.7° (Epoch: 23 November)

Event Time Altitude Azimuth Distance (km) Brightness Sun altitude
Rises 15:43:19 0° 290° (WNW) 3,504 8.2 28.3°
Reaches altitude 10° 15:47:52 10° 321° (NW) 2,509 7.3 28.3°
Maximum altitude 15:49:53 12° 342° (NNW) 2,356 7.1 28.3°
Drops below altitude 10° 15:51:51 10° 2° (N) 2,445 7.1 28.3°
Sets 15:56:09 0° 34° (NE) 3,292 7.8 28.2°
